Regional Weather Roundup
Issued by NWS Sioux Falls, SD

Home | Current Version | Previous Version | Text Only | Print | Product List | Glossary On
Versions: 1 2 3 4 5 6 7 8 9 10 11 12 13 14 15 16 17 18 19 20 21 22 23 24 25 26 27 28 29 30 31 32 33 34 35 36 37 38 39 40 41 42 43 44 45 46 47 48 49 50
000
ASUS43 KFSD 021310
RWRFSD

WEATHER ROUNDUP FOR SE SOUTH DAKOTA/SW MINNESOTA/NW IOWA
NATIONAL WEATHER SERVICE SIOUX FALLS SD
800 AM CDT MON MAY 02 2016

NOTE: "FAIR" INDICATES FEW OR NO CLOUDS BELOW 12,000 FEET WITH NO
SIGNIFICANT WEATHER AND OR OBSTRUCTIONS TO VISIBILITY.


SDZ038>040-050-052>070-021400-
SOUTHEAST SOUTH DAKOTA

CITY           SKY/WX    TMP DP  RH WIND       PRES   REMARKS
BROOKINGS      SUNNY     40  36  86 MISG      30.12R
CHAMBERLAIN    MOSUNNY   42  38  86 W6        30.14S
HURON          CLOUDY    43  36  76 CALM      30.12R
MADISON        FAIR      45  37  76 NW7       30.12S
MITCHELL       CLOUDY    44  37  76 W5        30.14S
SIOUX FALLS    MOSUNNY   41  38  89 CALM      30.13F
WINNER         FAIR      44  35  70 SW5       30.15S
YANKTON        SUNNY     43  37  81 CALM      30.15S
$$

MNZ071-072-080-081-089-090-097-098-021400-
SOUTHWEST MINNESOTA

CITY           SKY/WX    TMP DP  RH WIND       PRES   REMARKS
FAIRMONT       SUNNY     46  37  71 NW6       30.11S
JACKSON        SUNNY     46  37  71 CALM      30.12S
LUVERNE        SUNNY     37  34  87 CALM      30.14S
MARSHALL       SUNNY     47  38  71 W3        30.12R
MONTEVIDEO     SUNNY     50  37  62 CALM      30.12F
PIPESTONE      SUNNY     45  37  76 CALM      30.11F
REDWOOD FALLS  MOSUNNY   48  37  65 CALM      30.12R
TRACY          SUNNY     50  39  64 SW3       30.12S
WINDOM         SUNNY     45  37  76 CALM      30.12S
WORTHINGTON    SUNNY     45  39  79 W3        30.13S
$$

IAZ001>003-012>014-020>022-031-032-NEZ013-014-SDZ071-021400-
NORTHWEST IOWA

CITY           SKY/WX    TMP DP  RH WIND       PRES   REMARKS
CHEROKEE       SUNNY     38  38 100 CALM      30.14S
DENISON        SUNNY     45 N/A N/A CALM      30.12R
ESTHERVILLE    SUNNY     45  40  82 NW5       30.12S
LE MARS        SUNNY     39  37  93 CALM      30.15S
ORANGE CITY    SUNNY     43  37  81 CALM      30.13S
SHELDON        SUNNY     39  37  93 CALM      30.12S
SIOUX CITY     SUNNY     44  39  82 NW5       30.15S
SPENCER        SUNNY     42  38  85 CALM      30.13S
STORM LAKE     PTSUNNY   48  39  71 NW6       30.13S
$$

ABBREVIATIONS USED IN REMARKS
   TC - TEMPERATURE IN CELSIUS
  WCI - WIND CHILL INDEX
   HX - HEAT INDEX
  VSB - VISIBILITY





USA.gov is the U.S. government's official web portal to all federal, state and local government web resources and services.